Погода в Таксимо

Россия / Республика Бурятия     56°21′58″N   114°50′01″E
темп.,
°C
ветер,
м/с
пор.,
м/с
влажн.,
%
обл.,
%
осадки,
мм/ч
давл.,
гПа
погр.,
м
25 мая, ср
ср2523:00+10зюз225647 0.0 102117
02:00+8зюз32585 0.0 102121
05:00+9зюз335825 0.0 102040
08:00+15з24395 0.0 1018732
11:00+18з363234 0.0 10162491
14:00+20зсз562587 0.0 10142935
17:00+19зсз473048 0.0 10122541
20:00+14з1148100 0.0 101111
26 мая, чт
чт2623:00+12юз2253100 0.0 101013
02:00+10юз2257100 0.0 100817
05:00+10юз225893 0.0 100625
08:00+15з1243100 0.0 1003430
11:00+19юз2629100 0.0 9982493
14:00+21зсз3628100 0.0 9952818
17:00+15ссв1252100 0.5 996642
20:00+10зсз1271100 2.6 998113
27 мая, пт
пт2723:00+6ссв3668100 0.7 1001761
02:00+4сз2660100 0.8 1002453
05:00+3сз2467100 0.0 1002283
08:00+4сз2758100 0.5 10031298
11:00+4с3668100 2.2 10041040
14:00+5с4863100 4.5 10051454
17:00+4с4868100 1.9 10071253
20:00+3зсз2373100 3.2 1007198
28 мая, сб
сб2823:00+2з2380100 0.8 1007110
02:000зюз3390100 1.6 1007146
05:00+1зюз2389100 0.7 1006150
08:00+3зсз2566100 1.3 10061031
11:00+5сз3754100 0.9 10051492
14:00+5ссз4855100 1.9 10061485
17:00+5ссз41058100 0.4 10071618
20:00+3зсз2270100 0.8 100889
29 мая, вс
вс2923:00+1з2396100 4.0 1009150
02:00+1зюз2397100 6.2 1009145
05:00+1зюз2397100 1.0 1009156
08:00+2з2293100 1.8 1009343
11:00+5зюз238099 0.4 1008722
14:00+6з137198 0.8 1007937
17:00+7с2457100 0.1 10071217
20:00+5с017292 0.1 100826